TimeEST,TemperatureF,Dew PointF,Humidity,Sea Level PressureIn,VisibilityMPH,Wind Direction,Wind SpeedMPH,Gust SpeedMPH,PrecipitationIn,Events,Conditions,WindDirDegrees,DateUTC
12:15 AM,52.0,37.4,58,30.33,10.0,South,5.8,-,N/A,,Clear,190,2012-11-12 05:15:00
12:35 AM,52.2,36.9,56,30.33,10.0,SSW,8.1,-,N/A,,Clear,200,2012-11-12 05:35:00
12:55 AM,54.3,36.9,52,30.33,10.0,South,6.9,-,N/A,,Clear,190,2012-11-12 05:55:00
1:15 AM,53.2,37.8,56,30.32,10.0,South,6.9,-,N/A,,Clear,180,2012-11-12 06:15:00
1:35 AM,52.7,38.3,58,30.32,10.0,South,8.1,-,N/A,,Clear,170,2012-11-12 06:35:00
1:55 AM,53.1,38.3,57,30.32,10.0,South,10.4,-,N/A,,Clear,170,2012-11-12 06:55:00
2:15 AM,53.1,37.4,55,30.32,10.0,South,9.2,-,N/A,,Clear,190,2012-11-12 07:15:00
2:35 AM,52.9,38.3,58,30.32,10.0,South,8.1,-,N/A,,Clear,190,2012-11-12 07:35:00
2:55 AM,53.4,37.9,56,30.32,10.0,South,9.2,17.3,N/A,,Clear,190,2012-11-12 07:55:00
3:15 AM,53.2,38.3,57,30.31,10.0,South,9.2,-,N/A,,Clear,180,2012-11-12 08:15:00
3:35 AM,52.7,38.3,58,30.31,10.0,South,11.5,16.1,N/A,,Clear,170,2012-11-12 08:35:00
3:55 AM,52.3,38.3,59,30.31,10.0,South,12.7,16.1,N/A,,Clear,170,2012-11-12 08:55:00
4:35 AM,52.2,38.1,59,30.32,10.0,South,8.1,16.1,N/A,,Clear,180,2012-11-12 09:35:00
4:55 AM,52.3,37.8,58,30.32,10.0,South,10.4,-,N/A,,Clear,190,2012-11-12 09:55:00
5:15 AM,52.2,37.6,58,30.32,10.0,South,8.1,-,N/A,,Clear,180,2012-11-12 10:15:00
5:35 AM,52.2,37.6,58,30.31,10.0,South,10.4,-,N/A,,Clear,190,2012-11-12 10:35:00
5:55 AM,52.2,37.4,57,30.31,10.0,South,9.2,16.1,N/A,,Clear,190,2012-11-12 10:55:00
6:15 AM,51.8,37.4,58,30.31,10.0,South,8.1,-,N/A,,Clear,180,2012-11-12 11:15:00
6:35 AM,51.8,37.0,57,30.31,10.0,South,5.8,-,N/A,,Clear,190,2012-11-12 11:35:00
6:55 AM,52.0,36.9,56,30.31,10.0,South,8.1,-,N/A,,Clear,190,2012-11-12 11:55:00
7:15 AM,51.3,36.5,57,30.31,10.0,South,8.1,-,N/A,,Clear,190,2012-11-12 12:15:00
7:35 AM,52.0,36.1,55,30.31,10.0,SSW,9.2,-,N/A,,Clear,200,2012-11-12 12:35:00
7:55 AM,52.9,35.6,52,30.31,10.0,SSW,8.1,-,N/A,,Clear,210,2012-11-12 12:55:00
8:15 AM,53.2,36.1,52,30.30,10.0,SSW,9.2,-,N/A,,Clear,210,2012-11-12 13:15:00
8:35 AM,54.9,36.5,50,30.30,10.0,South,6.9,-,N/A,,Clear,190,2012-11-12 13:35:00
8:55 AM,56.3,35.1,45,30.29,10.0,South,8.1,-,N/A,,Clear,170,2012-11-12 13:55:00
9:15 AM,57.6,36.3,45,30.29,10.0,South,4.6,-,N/A,,Clear,180,2012-11-12 14:15:00
9:55 AM,60.6,36.9,41,30.27,10.0,South,9.2,-,N/A,,Clear,180,2012-11-12 14:55:00
10:15 AM,62.2,36.1,38,30.27,10.0,South,10.4,17.3,N/A,,Clear,180,2012-11-12 15:15:00
10:35 AM,64.9,36.5,35,30.27,10.0,South,8.1,-,N/A,,Clear,170,2012-11-12 15:35:00
10:55 AM,64.8,36.7,35,30.26,10.0,South,6.9,-,N/A,,Clear,170,2012-11-12 15:55:00
11:15 AM,67.6,34.3,29,30.25,10.0,SSE,13.8,18.4,N/A,,Clear,160,2012-11-12 16:15:00
11:35 AM,66.2,34.5,31,30.24,10.0,South,11.5,18.4,N/A,,Clear,170,2012-11-12 16:35:00
11:55 AM,66.6,35.4,32,30.23,10.0,SSE,13.8,20.7,N/A,,Clear,160,2012-11-12 16:55:00
12:15 PM,67.8,35.6,30,30.23,10.0,SSE,12.7,19.6,N/A,,Clear,150,2012-11-12 17:15:00
12:35 PM,68.2,36.5,31,30.21,10.0,SSE,15.0,21.9,N/A,,Clear,150,2012-11-12 17:35:00
12:55 PM,68.5,35.1,29,30.21,10.0,SSE,15.0,24.2,N/A,,Clear,150,2012-11-12 17:55:00
1:15 PM,67.1,36.5,32,30.20,10.0,SE,18.4,23.0,N/A,,Clear,140,2012-11-12 18:15:00
1:55 PM,69.8,35.6,28,30.20,10.0,SSE,13.8,18.4,N/A,,Clear,160,2012-11-12 18:55:00
2:15 PM,68.2,35.8,30,30.19,10.0,SSE,15.0,20.7,N/A,,Clear,160,2012-11-12 19:15:00
2:35 PM,67.5,36.0,31,30.19,10.0,SSE,13.8,19.6,N/A,,Clear,160,2012-11-12 19:35:00
2:55 PM,67.1,35.2,31,30.19,10.0,SSE,13.8,20.7,N/A,,Clear,160,2012-11-12 19:55:00
3:15 PM,66.7,35.4,31,30.18,10.0,South,9.2,-,N/A,,Clear,170,2012-11-12 20:15:00
3:35 PM,66.4,35.4,32,30.18,10.0,South,11.5,-,N/A,,Clear,170,2012-11-12 20:35:00
3:55 PM,65.8,35.6,33,30.17,10.0,SSE,12.7,17.3,N/A,,Clear,160,2012-11-12 20:55:00
4:15 PM,64.9,36.0,34,30.17,10.0,SSE,13.8,-,N/A,,Clear,160,2012-11-12 21:15:00
4:55 PM,64.2,36.9,36,30.15,10.0,SSE,15.0,-,N/A,,Clear,150,2012-11-12 21:55:00
5:15 PM,63.7,37.2,38,30.15,10.0,SSE,12.7,20.7,N/A,,Clear,160,2012-11-12 22:15:00
5:35 PM,63.3,37.0,38,30.14,10.0,SSE,13.8,18.4,N/A,,Clear,160,2012-11-12 22:35:00
5:55 PM,64.2,36.5,36,30.14,10.0,SSE,13.8,25.3,N/A,,Clear,160,2012-11-12 22:55:00
6:15 PM,63.7,36.7,37,30.13,10.0,SSE,18.4,28.8,N/A,,Clear,160,2012-11-12 23:15:00
6:35 PM,63.1,37.4,39,30.13,10.0,South,15.0,23.0,N/A,,Clear,170,2012-11-12 23:35:00
6:55 PM,62.8,37.8,40,30.14,10.0,South,11.5,21.9,N/A,,Clear,170,2012-11-12 23:55:00
7:15 PM,61.7,38.5,42,30.12,10.0,SSE,13.8,21.9,N/A,,Clear,160,2012-11-13 00:15:00
7:35 PM,61.2,39.4,45,30.11,10.0,SSE,16.1,25.3,N/A,,Clear,160,2012-11-13 00:35:00
7:55 PM,61.0,41.2,48,30.10,10.0,SSE,20.7,28.8,N/A,,Clear,160,2012-11-13 00:55:00
8:15 PM,60.8,42.8,52,30.09,10.0,SSE,20.7,26.5,N/A,,Clear,160,2012-11-13 01:15:00
8:35 PM,60.8,43.2,52,30.10,10.0,South,16.1,27.6,N/A,,Clear,170,2012-11-13 01:35:00
8:55 PM,60.6,44.2,55,30.10,10.0,SSE,15.0,24.2,N/A,,Clear,160,2012-11-13 01:55:00
9:15 PM,61.0,44.8,55,30.09,10.0,SSE,19.6,24.2,N/A,,Scattered Clouds,160,2012-11-13 02:15:00
9:35 PM,61.0,45.0,56,30.08,10.0,SSE,21.9,26.5,N/A,,Scattered Clouds,160,2012-11-13 02:35:00
9:55 PM,61.5,45.5,56,30.07,10.0,South,18.4,26.5,N/A,,Scattered Clouds,170,2012-11-13 02:55:00
10:15 PM,61.7,45.5,55,30.07,10.0,South,15.0,26.5,N/A,,Scattered Clouds,180,2012-11-13 03:15:00
10:35 PM,61.7,45.5,55,30.07,10.0,South,13.8,20.7,N/A,,Scattered Clouds,180,2012-11-13 03:35:00
10:55 PM,62.1,45.5,55,30.06,10.0,South,15.0,23.0,N/A,,Mostly Cloudy,170,2012-11-13 03:55:00
11:15 PM,61.9,45.5,55,30.05,10.0,South,15.0,23.0,N/A,,Mostly Cloudy,170,2012-11-13 04:15:00
11:35 PM,62.1,45.1,54,30.05,10.0,South,12.7,18.4,N/A,,Mostly Cloudy,170,2012-11-13 04:35:00
11:55 PM,62.4,45.1,53,30.04,10.0,SSE,18.4,24.2,N/A,,Mostly Cloudy,160,2012-11-13 04:55:00